Location: Newark
(46.2031°N, 3.4731°E)
Time: 00:23:30
(UTC+00:00)

Envisat - Pass Details

Date: 16 September 2019
Orbit: 764 x 766 km, 98.1° (Epoch: 19 October)

Event Time Altitude Azimuth Distance (km) Brightness Sun altitude
Rises 18:31:15 0° 187° (S) 3,220 6.2 -6.8°
Reaches altitude 10° 18:33:41 10° 196° (SSW) 2,298 5.5 -7.2°
Maximum altitude 18:38:23 38° 263° (W) 1,169 4.7 -8.0°
Drops below altitude 10° 18:43:07 10° 331° (NNW) 2,314 6.1 -8.8°
Sets 18:45:36 0° 340° (NNW) 3,245 6.8 -9.2°
